• In Hungary
  • List of Countries
  • For 7 days
  • Water Temperature
  • Satellite Maps
  • Weather Map
  • News
  • Weather Widgets
  • user-avatar
    Login

    Hourly Weather Vatican

    Today, 20 August, Monday

    Time Temperature Precipitation Wind Pressure Humidity
    00:00 +27°C° 0 mm 2 mps 759 mmHg 62%
    01:00 +27°C° 0 mm 2 mps 759 mmHg 63%
    02:00 +26°C° 0 mm 2 mps 758 mmHg 61%
    03:00 +26°C° 0 mm 2 mps 758 mmHg 60%
    04:00 +26°C° 0 mm 2 mps 758 mmHg 59%
    05:00 +27°C° 0 mm 2 mps 758 mmHg 56%
    06:00 +27°C° 0 mm 2 mps 758 mmHg 54%
    07:00 +28°C° 0 mm 2 mps 758 mmHg 50%
    08:00 +30°C° 0 mm 2 mps 758 mmHg 46%
    09:00 +32°C° 0 mm 1 mps 758 mmHg 42%
    10:00 +34°C° 0 mm 1 mps 758 mmHg 38%
    11:00 +34°C° 0 mm 1 mps 758 mmHg 37%
    12:00 +35°C° 0 mm 2 mps 758 mmHg 37%
    13:00 +35°C° 0 mm 3 mps 758 mmHg 37%
    14:00 +35°C° 0 mm 3 mps 758 mmHg 38%
    15:00 +35°C° 0 mm 3 mps 758 mmHg 40%
    16:00 +35°C° 0 mm 3 mps 757 mmHg 41%
    17:00 +33°C° 0 mm 3 mps 758 mmHg 46%
    18:00 +31°C° 0 mm 3 mps 758 mmHg 51%
    19:00 +30°C° 0 mm 3 mps 758 mmHg 56%
    20:00 +29°C° 0.1 mm 2 mps 758 mmHg 59%
    21:00 +29°C° 0.1 mm 2 mps 758 mmHg 62%
    22:00 +28°C° 0.1 mm 2 mps 758 mmHg 65%
    23:00 +28°C° 0 mm 2 mps 758 mmHg 65%

    Tomorrow, 21 August, Tuesday

    Time Temperature Precipitation Wind Pressure Humidity
    00:00 +27°C° 0 mm 2 mps 758 mmHg 65%
    01:00 +27°C° 0 mm 2 mps 759 mmHg 65%
    02:00 +27°C° 0 mm 2 mps 758 mmHg 63%
    03:00 +27°C° 0 mm 2 mps 758 mmHg 61%
    04:00 +27°C° 0 mm 2 mps 758 mmHg 59%
    05:00 +27°C° 0 mm 2 mps 758 mmHg 56%
    06:00 +28°C° 0 mm 2 mps 758 mmHg 53%
    07:00 +28°C° 0 mm 2 mps 758 mmHg 50%
    08:00 +30°C° 0 mm 2 mps 758 mmHg 45%
    09:00 +34°C° 0 mm 2 mps 759 mmHg 41%
    10:00 +35°C° 0 mm 1 mps 759 mmHg 36%
    11:00 +36°C° 0 mm 2 mps 759 mmHg 35%
    12:00 +36°C° 0 mm 3 mps 759 mmHg 35%
    13:00 +36°C° 0 mm 3 mps 759 mmHg 34%
    14:00 +36°C° 0 mm 3 mps 758 mmHg 37%
    15:00 +35°C° 0 mm 3 mps 758 mmHg 40%
    16:00 +34°C° 0 mm 4 mps 758 mmHg 43%
    17:00 +33°C° 0.1 mm 3 mps 758 mmHg 47%
    18:00 +31°C° 0.1 mm 2 mps 758 mmHg 52%
    19:00 +30°C° 0.1 mm 2 mps 758 mmHg 57%
    20:00 +30°C° 0.1 mm 2 mps 759 mmHg 58%
    21:00 +29°C° 0.1 mm 1 mps 759 mmHg 59%
    22:00 +29°C° 0.1 mm 1 mps 760 mmHg 60%
    23:00 +28°C° 0 mm 1 mps 760 mmHg 60%

    Day after tomorrow, 22 August, Wednesday

    Time Temperature Precipitation Wind Pressure Humidity
    00:00 +28°C° 0 mm 1 mps 760 mmHg 60%
    01:00 +28°C° 0 mm 1 mps 760 mmHg 60%
    02:00 +28°C° 0 mm 1 mps 759 mmHg 61%
    03:00 +27°C° 0 mm 1 mps 759 mmHg 62%
    04:00 +27°C° 0 mm 1 mps 759 mmHg 63%
    05:00 +27°C° 0 mm 1 mps 759 mmHg 60%
    06:00 +28°C° 0 mm 1 mps 759 mmHg 58%
    07:00 +28°C° 0 mm 2 mps 759 mmHg 55%
    08:00 +30°C° 0 mm 1 mps 759 mmHg 51%
    09:00 +32°C° 0 mm 1 mps 760 mmHg 46%
    10:00 +34°C° 0 mm 1 mps 760 mmHg 42%
    11:00 +35°C° 0 mm 2 mps 760 mmHg 40%
    12:00 +36°C° 0 mm 3 mps 759 mmHg 38%
    13:00 +36°C° 0 mm 3 mps 759 mmHg 36%
    14:00 +36°C° 0 mm 4 mps 759 mmHg 39%
    15:00 +35°C° 0 mm 4 mps 759 mmHg 41%
    16:00 +34°C° 0 mm 5 mps 759 mmHg 44%
    17:00 +33°C° 0.2 mm 4 mps 759 mmHg 49%
    18:00 +32°C° 0.2 mm 4 mps 759 mmHg 54%
    19:00 +30°C° 0.2 mm 3 mps 759 mmHg 60%
    20:00 +29°C° 0.1 mm 3 mps 760 mmHg 61%
    21:00 +29°C° 0.1 mm 3 mps 760 mmHg 63%
    22:00 +28°C° 0.1 mm 3 mps 760 mmHg 64%
    23:00 +28°C° 0 mm 3 mps 760 mmHg 65%

    23 August, Thursday

    Time Temperature Precipitation Wind Pressure Humidity
    00:00 +28°C° 0 mm 2 mps 760 mmHg 66%
    01:00 +27°C° 0 mm 2 mps 760 mmHg 67%
    02:00 +27°C° 0 mm 2 mps 759 mmHg 67%
    03:00 +27°C° 0 mm 2 mps 759 mmHg 68%
    04:00 +26°C° 0 mm 2 mps 759 mmHg 68%
    05:00 +27°C° 0 mm 2 mps 759 mmHg 65%
    06:00 +27°C° 0 mm 2 mps 759 mmHg 62%
    07:00 +28°C° 0 mm 2 mps 759 mmHg 59%
    08:00 +30°C° 0 mm 2 mps 759 mmHg 53%
    09:00 +31°C° 0 mm 1 mps 759 mmHg 48%
    10:00 +33°C° 0 mm 1 mps 759 mmHg 43%
    11:00 +34°C° 0 mm 2 mps 759 mmHg 42%
    12:00 +35°C° 0 mm 3 mps 759 mmHg 42%
    13:00 +35°C° 0 mm 4 mps 758 mmHg 42%
    14:00 +34°C° 0 mm 4 mps 758 mmHg 45%
    15:00 +34°C° 0 mm 5 mps 758 mmHg 47%
    16:00 +33°C° 0 mm 5 mps 758 mmHg 50%
    17:00 +32°C° 0.2 mm 5 mps 758 mmHg 55%
    18:00 +30°C° 0.2 mm 4 mps 758 mmHg 60%
    19:00 +29°C° 0.2 mm 4 mps 758 mmHg 65%
    20:00 +28°C° 0.1 mm 3 mps 758 mmHg 67%
    21:00 +28°C° 0.1 mm 3 mps 759 mmHg 68%
    22:00 +28°C° 0.1 mm 2 mps 759 mmHg 69%
    23:00 +27°C° 0.1 mm 2 mps 759 mmHg 71%

    24 August, Friday

    Time Temperature Precipitation Wind Pressure Humidity
    00:00 +27°C° 0.1 mm 3 mps 759 mmHg 72%
    01:00 +27°C° 0.1 mm 3 mps 758 mmHg 73%
    02:00 +27°C° 0.5 mm 3 mps 758 mmHg 74%
    03:00 +26°C° 0.5 mm 3 mps 758 mmHg 74%
    04:00 +26°C° 0.5 mm 3 mps 758 mmHg 75%
    05:00 +26°C° 0 mm 2 mps 758 mmHg 73%
    06:00 +27°C° 0 mm 2 mps 758 mmHg 70%
    07:00 +27°C° 0 mm 2 mps 758 mmHg 68%
    08:00 +29°C° 0.1 mm 2 mps 758 mmHg 62%
    09:00 +30°C° 0.1 mm 2 mps 758 mmHg 56%
    10:00 +32°C° 0.1 mm 2 mps 758 mmHg 49%
    11:00 +33°C° 0.1 mm 3 mps 757 mmHg 47%
    12:00 +34°C° 0.1 mm 4 mps 757 mmHg 45%
    13:00 +35°C° 0.1 mm 4 mps 757 mmHg 43%
    14:00 +34°C° 0 mm 4 mps 757 mmHg 45%
    15:00 +34°C° 0 mm 4 mps 756 mmHg 47%
    16:00 +33°C° 0 mm 4 mps 756 mmHg 50%
    17:00 +32°C° 0 mm 4 mps 756 mmHg 55%
    18:00 +30°C° 0 mm 4 mps 756 mmHg 60%
    19:00 +28°C° 0 mm 3 mps 756 mmHg 65%
    20:00 +28°C° 0.3 mm 4 mps 756 mmHg 68%
    21:00 +28°C° 0.3 mm 4 mps 756 mmHg 71%
    22:00 +27°C° 0.3 mm 4 mps 757 mmHg 73%
    23:00 +27°C° 0.1 mm 4 mps 756 mmHg 74%

    25 August, Saturday

    Time Temperature Precipitation Wind Pressure Humidity
    00:00 +27°C° 0.1 mm 4 mps 756 mmHg 75%
    01:00 +27°C° 0.1 mm 4 mps 756 mmHg 76%
    02:00 +26°C° 0 mm 4 mps 756 mmHg 76%
    03:00 +26°C° 0 mm 4 mps 755 mmHg 77%
    04:00 +26°C° 0 mm 4 mps 755 mmHg 77%
    05:00 +26°C° 0 mm 4 mps 755 mmHg 75%
    06:00 +27°C° 0 mm 4 mps 755 mmHg 74%
    07:00 +27°C° 0 mm 4 mps 755 mmHg 72%
    08:00 +28°C° 0 mm 4 mps 755 mmHg 66%
    09:00 +30°C° 0 mm 5 mps 755 mmHg 59%
    10:00 +32°C° 0 mm 5 mps 755 mmHg 53%
    11:00 +32°C° 0 mm 5 mps 755 mmHg 50%
    12:00 +33°C° 0 mm 5 mps 755 mmHg 47%
    13:00 +33°C° 0 mm 5 mps 755 mmHg 44%
    14:00 +33°C° 0 mm 5 mps 755 mmHg 45%
    15:00 +32°C° 0 mm 6 mps 754 mmHg 47%
    16:00 +32°C° 0 mm 6 mps 754 mmHg 48%
    17:00 +30°C° 0 mm 5 mps 754 mmHg 54%
    18:00 +29°C° 0 mm 5 mps 755 mmHg 60%
    19:00 +27°C° 0 mm 4 mps 755 mmHg 65%
    20:00 +27°C° 0 mm 4 mps 755 mmHg 67%
    21:00 +27°C° 0 mm 4 mps 755 mmHg 69%
    22:00 +26°C° 0 mm 3 mps 756 mmHg 71%
    23:00 +26°C° 0 mm 3 mps 756 mmHg 72%
    Show more